Погода в Уллубийауле

Россия / Республика Дагестан     42°35′49″N   47°43′03″E
темп.,
°C
ветер,
м/с
пор.,
м/с
влажн.,
%
обл.,
%
осадки,
мм/ч
давл.,
гПа
погр.,
м
7 июля, чт
чт700:00+17ю22600 0.0 101639
03:00+17ю44600 0.0 101565
06:00+19ююв48500 0.0 1015430
09:00+24юв88440 0.0 10141091
12:00+24вюв87490 0.0 10131107
15:00+24вюв76530 0.0 10121034
18:00+22вюв56632 0.0 1012648
21:00+18ююв338015 0.0 101348
8 июля, пт
пт800:00+18ююв22820 0.0 101230
03:00+17ююз22840 0.0 101229
06:00+21ююв34630 0.0 1012224
09:00+27вюв57380 0.0 10111015
12:00+28в56350 0.0 1011919
15:00+28вюв55340 0.0 1010920
18:00+25вюв454548 0.0 1010490
21:00+21ююз225780 0.0 101119
9 июля, сб
сб900:00+20ююз225555 0.0 101015
03:00+20ююз225514 0.0 100914
06:00+24юз224349 0.0 100987
09:00+29вюв562699 0.0 10081027
12:00+30в663051 0.0 1007975
15:00+30вюв8102910 0.0 10061154
18:00+27вюв59333 0.1 1007597
21:00+22ююз22440 0.1 100716
10 июля, вс
вс1000:00+21юз224173 0.0 100612
03:00+21юз22420 0.0 100612
06:00+25юз22350 0.0 100572
09:00+30вюв56230 0.0 1005930
12:00+31вюв66290 0.0 1004877
15:00+31вюв911320 0.0 1004978
18:00+28юв813330 0.0 1004707
21:00+24ю44420 0.0 100550
11 июля, пн
пн1100:00+23ююз33400 0.0 100419
03:00+22юз22412 0.0 100513
06:00+26ююз12350 0.0 100580
09:00+30в44310 0.0 1006711
12:00+30в54420 0.0 1006830
15:00+30в43440 0.0 1006711
18:00+28всв21430 0.0 1008296
21:00+24зсз22570 0.0 101015